Hourly Data Report for September 04, 2017

All times are specified in Local Standard Time (LST). Add 1 hour to adjust for Daylight Saving Time where and when it is observed.

CAPE DORSET A
NUNAVUT

64°13'49.000" N
76°31'30.000" W
48.20 m
2400637
71366
YTE

Download Data

Hourly Data (September 2017)
Hourly Data Report for September 4, 2017
Temp Definition
°C
Dew Point Temp Definition
°C
Rel Hum Definition
%
Wind Dir Definition
10's deg

Wind Spd Definition
km/h
Visibility Definition
km
Stn Press Definition
kPa
Hmdx Definition


Wind Chill Definition


Weather Definition


TIME
00:00 Legend Double Dagger 6.3 6.0 98 3 13 16.1 99.52     LegendNANA
01:00 Legend Double Dagger 6.2 5.6 96 5 18 16.1 99.54     LegendNANA
02:00 Legend Double Dagger 5.9 5.6 98 3 9 16.1 99.57     LegendNANA
03:00 Legend Double Dagger 5.7 5.4 98 3 13 16.1 99.60     LegendNANA
04:00 Legend Double Dagger 5.5 5.1 97 3 17 16.1 99.64     LegendNANA
05:00 Legend Double Dagger 5.3 4.9 97 1 17 16.1 99.67     LegendNANA
06:00 Legend Double Dagger 5.2 4.6 96 3 11 16.1 99.70     LegendNANA
07:00 Legend Double Dagger 5.3 4.6 95 36 18 16.1 99.73     LegendNANA
08:00 Legend Double Dagger 5.4 4.7 95 2 24 16.1 99.75     LegendNANA
09:00 Legend Double Dagger 5.5 4.6 94 4 11 16.1 99.77     LegendNANA
10:00 Legend Double Dagger 5.6 4.4 92 2 11 16.1 99.82     LegendNANA
11:00 Legend Double Dagger 6.0 4.7 91 3 11 16.1 99.82     LegendNANA
12:00 Legend Double Dagger 6.5 5.0 90 2 21 16.1 99.84     LegendNANA
13:00 Legend Double Dagger 6.4 4.6 88 3 18 16.1 99.87     LegendNANA
14:00 Legend Double Dagger 6.2 4.9 91 4 15 16.1 99.90     LegendNANA
15:00 Legend Double Dagger 6.1 5.1 93 3 11 16.1 99.95     LegendNANA
16:00 Legend Double Dagger 5.7 4.7 93 1 22 16.1 99.98     LegendNANA
17:00 Legend Double Dagger 5.9 4.7 92 3 30 16.1 99.99     LegendNANA
18:00 Legend Double Dagger 5.9 4.9 93 2 17 16.1 100.02     LegendNANA
19:00 Legend Double Dagger 6.0 4.3 89 2 22 16.1 100.05     LegendNANA
20:00 Legend Double Dagger 5.8 4.1 89 2 24 16.1 100.06     LegendNANA
21:00 Legend Double Dagger 5.6 4.3 91 3 22 16.1 100.06     LegendNANA
22:00 Legend Double Dagger 5.5 4.5 93 3 24 16.1 100.03     LegendNANA
23:00 Legend Double Dagger 5.7 4.5 92 3 21 16.1 100.02     LegendNANA

Notes on Data Quality.

Legend

  • E = Estimated
  • M = Missing
  • NA = Not Available
  • ‡ = Partner data that is not subject to review by the National Climate Archives
Date modified: